Preview of NWS' New Version of Forecast
This preview is not operational and should not be used for support decisions.

Regional Weather Roundup (RWR)

Issued by National Weather Service (NWS)

                            
000
ASUS46 KPQR 201210
RWROR 

OREGON REGIONAL WEATHER ROUNDUP
NATIONAL WEATHER SERVICE PORTLAND OR
500 AM PDT TUE AUG 20 2019

NOTE: "FAIR" INDICATES FEW OR NO CLOUDS BELOW 12,000 FEET WITH
NO SIGNIFICANT WEATHER AND/OR OBSTRUCTIONS TO VISIBILITY.

ORZ001>013-201300-
NORTHWEST OREGON

  
CITY           SKY/WX    TMP DP  RH WIND       PRES   REMARKS
ASTORIA        CLEAR     51  50  96 SE3       29.91F                  
6HR MIN TEMP:  51; 6HR MAX TEMP:  57;                                

TILLAMOOK      CLEAR     52  50  93 SE3       29.94F                  
NEWPORT        CLEAR     50  50 100 CALM      29.98S                  
FLORENCE       CLOUDY    54  52  94 CALM      29.96S                  
PORTLAND       CLEAR     60  55  83 SE3       29.93S                  
6HR MIN TEMP:  60; 6HR MAX TEMP:  69;                                

VANCOUVER WA   CLEAR     58  54  86 CALM      29.93S                  
6HR MIN TEMP:  57; 6HR MAX TEMP:  67;                                

SCAPPOOSE      CLEAR     53  51  93 CALM      29.92F                  
6HR MIN TEMP:  52; 6HR MAX TEMP:  66;                                

HILLSBORO      CLEAR     52  49  89 CALM      29.93S                  
6HR MIN TEMP:  52; 6HR MAX TEMP:  63;                                

AURORA         CLEAR     57  53  86 CALM      29.94S                  
6HR MIN TEMP:  56; 6HR MAX TEMP:  67;                                

MCMINNVILLE    CLEAR     52  50  93 W3        29.93S                  
6HR MIN TEMP:  52; 6HR MAX TEMP:  67;                                

SALEM          CLEAR     55  51  86 CALM      29.92F                  
6HR MIN TEMP:  55; 6HR MAX TEMP:  66;                                

CORVALLIS      CLEAR     52  51  97 CALM      29.94F                  
EUGENE         CLEAR     54  51  90 CALM      29.95S                  
6HR MIN TEMP:  52; 6HR MAX TEMP:  66;                                

CRESWELL       PTCLDY    55  54  94 CALM      29.94S                  
$$

ORZ021-028-201300-
SOUTHWEST OREGON

  
CITY           SKY/WX    TMP DP  RH WIND       PRES   REMARKS
NORTH BEND     CLOUDY    56  56 100 SE7       29.98S                  
6HR MIN TEMP:  55; 6HR MAX TEMP:  59;                                

BROOKINGS      LGT RAIN  52  52 100 SE5       29.99S VSB 3/4          
ROSEBURG       CLEAR     61  55  81 CALM      29.95S                  
6HR MIN TEMP:  61; 6HR MAX TEMP:  72;                                

SEXTON SUMMIT  CLEAR     61  53  75 S7        30.05S                  
6HR MIN TEMP:  61; 6HR MAX TEMP:  66;                                

GRANTS PASS    FAIR      61  54  77 CALM      29.99R                  
MEDFORD        CLEAR     62  51  67 E3        29.96R                  
6HR MIN TEMP:  62; 6HR MAX TEMP:  74;                                

$$

ORZ014>016-041-201300-
COLUMBIA GORGE

  
CITY           SKY/WX    TMP DP  RH WIND       PRES   REMARKS
TROUTDALE      CLEAR     56  51  84 E5        29.93F                  
6HR MIN TEMP:  56; 6HR MAX TEMP:  65;                                

HOOD RIVER     CLEAR     52  46  82 CALM      29.94S                  
THE DALLES     CLEAR     59  51  75 CALM      29.90S                  
6HR MIN TEMP:  59; 6HR MAX TEMP:  74;                                

$$

ORZ029>031-041-044-049-050-061>064-502-503-505>511-201300-
EASTERN OREGON

  
CITY           SKY/WX    TMP DP  RH WIND       PRES   REMARKS
MADRAS         CLEAR     54  45  71 SE6       30.00S                  
REDMOND        CLEAR     54  45  71 S5        30.01S                  
6HR MIN TEMP:  54; 6HR MAX TEMP:  72;                                

BEND           CLEAR     57  46  67 SW8       30.02S                  
PRINEVILLE     CLEAR     52  46  82 CALM      30.01F                  
KLAMATH FALLS  CLEAR     51  44  77 E3        30.08S                  
6HR MIN TEMP:  49; 6HR MAX TEMP:  63;                                

LAKEVIEW       CLEAR     39  31  72 NW7       30.13S                  
HERMISTON      CLEAR     58  47  66 SE3       29.90R                  
6HR MIN TEMP:  57; 6HR MAX TEMP:  70;                                

PENDLETON      CLEAR     59  44  57 E8        29.93S                  
6HR MIN TEMP:  56; 6HR MAX TEMP:  71;                                

JOHN DAY       CLEAR     59  40  49 E9        30.05S                  
MEACHAM        CLEAR     43  38  82 CALM      30.05S                  
6HR MIN TEMP:  43; 6HR MAX TEMP:  53;                                

LA GRANDE      CLEAR     51  44  77 CALM      30.02S                  
6HR MIN TEMP:  51; 6HR MAX TEMP:  68;                                

BAKER CITY     PTCLDY    50  45  83 CALM      30.04S                  
6HR MIN TEMP:  50; 6HR MAX TEMP:  64;                                

BURNS          PTCLDY    51  37  58 SE7       30.05R                  
6HR MIN TEMP:  50; 6HR MAX TEMP:  68;                                

ROME             N/A     55  22  27 CALM      30.03R                  
6HR MIN TEMP:  55; 6HR MAX TEMP:  65;                                

ONTARIO        CLEAR     64  47  53 SW3       29.93R                  
6HR MIN TEMP:  64; 6HR MAX TEMP:  80;                                

$$